Location: Unspecified
(43.4354°N, 0.0000°E)
Time: 05:25:49
(UTC+00:00)

Courier 1B Rocket - Pass Details

Date: 26 June 2019
Orbit: 920 x 1202 km, 28.2° (Epoch: 23 July)

Event Time Altitude Azimuth Distance (km) Brightness Sun altitude
Exits shadow 01:43:35 13° 153° (SSE) 2,746 7.0 -19.3°
Drops below altitude 10° 01:45:46 10° 135° (SE) 2,911 7.3 -19.1°
Sets 01:50:14 0° 109° (ESE) 3,798 8.2 -18.8°
